Flag for U.S.A. Weather past 2 weeks in Wilmington, North Carolina, U.S.A.

Now
64 °F

Fog.


Feels Like: 64 °F
Forecast: 63 / 79 °F
Wind: 7 mph from Northeast

Location: New Hanover International Airport

Current Time: Sep 30, 2014 at 8:49:17 AM

Latest Report: Sep 30, 2014 at 7:53 AM


Visibility: 5 mi

Pressure: 29.90 "Hg

Humidity: 94%

Dew point: 62 °F

Location of WilmingtonLocation

Historic Weather in Wilmington — Graph

°F

Wilmington temperature yesterday

Maximum temperature yesterday: 76 °F (at 11:53 AM)
Minimum temperature yesterday: 65 °F (at 9:53 PM)
Average temperature yesterday: 69 °F

Past Weeks' High & Low Weather Summary

 TemperatureHumidityPressure
High85 °F (Sep 21, 3:53 PM)100% (Sep 24, 10:53 PM)30.22 "Hg (Sep 24, 10:53 PM)
Low59 °F (Sep 23, 11:53 PM)45% (Sep 21, 3:53 PM)29.77 "Hg (Sep 21, 3:53 AM)
Average71 °F84%30.05 "Hg
* Reported Sep 15 7:53 AM — Sep 30 7:53 AM, Wilmington, Weather by CustomWeather, © 2014

Note: Actual official high and low records may vary slightly from our data, if they occured in-between our weather recording intervals... More about our weather records

Advertising

Wilmington weather history for previous 24 hours

 ConditionsComfort  
Time TempWeatherWind HumidityBarometerVisibility
7:53 AM
Sep 30
64 °FFog.7 mph94%29.90 "Hg5 mi
6:53 AM63 °FFog.10 mph97%29.89 "Hg5 mi
5:53 AM64 °FFog.6 mph97%29.88 "Hg6 mi
4:53 AM65 °FClear.6 mph94%29.88 "Hg8 mi
3:53 AM65 °FFog.5 mph97%29.89 "Hg4 mi
2:53 AM65 °FFog.5 mph100%29.89 "Hg4 mi
1:53 AM66 °FFog.7 mph96%29.92 "Hg5 mi
12:53 AM66 °FOvercast.5 mph93%29.92 "Hg9 mi
11:53 PM
Sep 29
66 °FPartly cloudy.3 mph96%29.94 "Hg7 mi
10:53 PM65 °FPartly cloudy.No wind94%29.96 "Hg10 mi
9:53 PM65 °FOvercast.No wind87%29.96 "Hg10 mi
8:53 PM67 °FRain. Fog.8 mph93%29.95 "Hg4 mi
7:53 PM68 °FLight rain. Mostly cloudy.5 mph93%29.95 "Hg9 mi
6:53 PM69 °FLight rain. Fog.5 mph93%29.96 "Hg6 mi
5:53 PM70 °FLight rain. Overcast.3 mph93%29.96 "Hg7 mi
4:53 PM71 °FLight rain. Mostly cloudy.3 mph87%29.96 "Hg8 mi
3:53 PM72 °FLight rain. Overcast.6 mph81%29.96 "Hg10 mi
2:53 PM74 °FPartly sunny.7 mph74%29.95 "Hg10 mi
1:53 PM75 °FPartly sunny.8 mph71%29.96 "Hg10 mi
12:53 PM76 °FSunny.8 mph69%29.98 "Hg10 mi
11:53 AM76 °FOvercast.6 mph67%30.00 "Hg10 mi
10:53 AM75 °FPassing clouds.10 mph69%30.01 "Hg10 mi
9:53 AM71 °FScattered clouds.7 mph84%30.01 "Hg10 mi
8:53 AM68 °FSunny.5 mph90%30.01 "Hg10 mi
Weather by CustomWeather, © 2014

See weather overviewHow to use our weather pages